CW2548 Weather Reports


time (UTC)temp
C
wind
direction
speed
KPH
gust
KPH
rain 1hr
cm
rain 24hr
cm
rain mn
cm
humidity
%
barometer
mb
20260906093145 29 122 8.0 12.9 0.00 0.00 0.00 82 1010.2
20260906092145 29 139 8.0 12.9 0.00 0.00 0.00 82 1010.2
20260906091146 29 142 4.8 9.7 0.00 0.00 0.00 81 1010.2
20260906090146 29 139 8.0 14.5 0.00 0.00 0.00 81 1010.3
20260906085146 29 138 4.8 8.0 0.00 0.00 0.00 80 1010.4
20260906084145 30 113 8.0 12.9 0.00 0.00 0.00 80 1010.5
20260906083145 30 127 8.0 12.9 0.00 0.00 0.00 78 1010.6
20260906082145 30 120 9.7 14.5 0.00 0.00 0.00 76 1010.6
20260906081145 31 109 6.4 9.7 0.00 0.00 0.00 71 1010.6
20260906080207 31 87 0.0 3.2 0.00 0.00 0.00 70 1010.6
20260906075145 31 132 3.2 3.2 0.00 0.00 0.00 72 1010.6
20260906074146 31 159 4.8 6.4 0.00 0.00 0.00 70 1010.7
20260906073146 32 139 1.6 6.4 0.00 0.00 0.00 63 1010.6
20260906072145 32 179 4.8 9.7 0.00 0.00 0.00 60 1010.6
20260906071145 32 230 8.0 14.5 0.00 0.00 0.00 61 1010.6
20260906070206 32 243 8.0 12.9 0.00 0.00 0.00 61 1010.5
20260906065206 32 231 4.8 12.9 0.00 0.00 0.00 60 1010.5
20260906064146 32 236 11.3 14.5 0.00 0.00 0.00 59 1010.5
20260906063146 32 208 9.7 19.3 0.00 0.00 0.00 59 1010.4
20260906062145 32 215 9.7 14.5 0.00 0.00 0.00 60 1010.4
20260906061145 31 228 8.0 14.5 0.00 0.00 0.00 61 1010.4
20260906060145 30 159 8.0 8.0 0.00 0.00 0.00 74 1010.4
20260906055226 30 177 11.3 16.1 0.00 0.00 0.00 75 1010.4
20260906054146 30 163 14.5 19.3 0.00 0.00 0.00 76 1010.6
20260906053145 30 153 9.7 16.1 0.00 0.00 0.00 74 1010.7
20260906052146 30 161 12.9 19.3 0.00 0.00 0.00 75 1010.7
20260906051146 30 169 8.0 12.9 0.00 0.00 0.00 74 1010.8
20260906050146 30 174 11.3 14.5 0.00 0.00 0.00 75 1010.8
20260906045146 30 174 16.1 19.3 0.00 0.00 0.00 74 1011.1
20260906044145 31 166 9.7 17.7 0.00 0.00 0.00 71 1011.2
20260906043206 31 142 11.3 17.7 0.00 0.00 0.00 67 1011.3
20260906042146 33 174 11.3 17.7 0.00 0.00 0.00 61 1011.2
20260906041146 34 140 12.9 19.3 0.00 0.00 0.00 56 1011.2
20260906040206 35 179 12.9 19.3 0.00 0.00 0.00 50 1011.1
20260906035145 35 148 9.7 12.9 0.00 0.00 0.00 50 1011.0
20260906034146 36 183 9.7 11.3 0.00 0.00 0.00 47 1010.9
20260906033146 36 197 3.2 4.8 0.00 0.00 0.00 41 1010.6
20260906032145 36 241 3.2 8.0 0.00 0.00 0.00 41 1010.1
20260906031145 36 231 3.2 6.4 0.00 0.00 0.00 42 1009.7
20260906030145 36 230 11.3 17.7 0.00 0.00 0.00 43 1009.4
20260906025145 36 253 4.8 9.7 0.00 0.00 0.00 44 1009.2
20260906024146 36 247 6.4 9.7 0.00 0.00 0.00 45 1009.2
20260906023146 37 235 4.8 6.4 0.00 0.00 0.00 45 1009.0
20260906022146 37 246 8.0 14.5 0.00 0.00 0.00 44 1008.8
20260906021145 37 244 4.8 14.5 0.00 0.00 0.00 45 1008.9
20260906020145 37 261 8.0 17.7 0.00 0.00 0.00 44 1008.7
20260906015206 37 236 11.3 16.1 0.00 0.00 0.00 44 1008.6
20260906014145 37 248 9.7 12.9 0.00 0.00 0.00 43 1008.5
20260906013145 38 243 11.3 16.1 0.00 0.00 0.00 41 1008.3
20260906012145 38 290 11.3 17.7 0.00 0.00 0.00 38 1008.3
20260906011145 38 302 9.7 14.5 0.00 0.00 0.00 37 1008.1
20260906010227 38 281 8.0 16.1 0.00 0.00 0.00 38 1008.0
20260906005146 39 338 8.0 14.5 0.00 0.00 0.00 37 1008.1
20260906004145 39 300 8.0 8.0 0.00 0.00 0.00 38 1008.1
20260906003146 39 300 11.3 17.7 0.00 0.00 0.00 38 1008.3
20260906002145 39 314 12.9 16.1 0.00 0.00 0.00 38 1008.3
20260906001146 40 291 14.5 17.7 0.00 0.00 0.00 38 1008.3
20260906000146 39 297 8.0 14.5 0.00 0.00 0.00 39 1008.2
20260905235145 39 287 6.4 12.9 0.00 0.00 0.00 39 1008.0
20260905234145 39 293 11.3 12.9 0.00 0.00 0.00 40 1007.8
20260905233146 39 328 8.0 9.7 0.00 0.00 0.00 39 1007.9
20260905232146 39 273 8.0 19.3 0.00 0.00 0.00 41 1008.2
20260905231145 39 297 8.0 9.7 0.00 0.00 0.00 40 1008.3
20260905230205 39 300 11.3 16.1 0.00 0.00 0.00 41 1008.3
20260905225145 39 291 12.9 17.7 0.00 0.00 0.00 41 1008.3
20260905224145 39 270 14.5 22.5 0.00 0.00 0.00 41 1008.4
20260905223206 39 304 12.9 20.9 0.00 0.00 0.00 41 1008.5
20260905222147 39 268 6.4 14.5 0.00 0.00 0.00 41 1008.6
20260905221145 39 283 11.3 14.5 0.00 0.00 0.00 41 1008.7
20260905220146 40 260 4.8 16.1 0.00 0.00 0.00 41 1008.9
20260905215147 40 241 6.4 9.7 0.00 0.00 0.00 40 1009.1
20260905214146 38 24 1.6 1.6 0.00 0.00 0.00 42 1009.2
20260905213146 39 343 4.8 9.7 0.00 0.00 0.00 41 1009.2
20260905212145 38 288 4.8 12.9 0.00 0.00 0.00 43 1009.3
20260905211145 38 305 11.3 16.1 0.00 0.00 0.00 42 1009.6
20260905210145 38 326 8.0 11.3 0.00 0.00 0.00 42 1009.8
20260905205206 39 149 1.6 3.2 0.00 0.00 0.00 41 1010.1
20260905204145 38 320 1.6 1.6 0.00 0.00 0.00 42 1010.3
20260905203146 38 294 4.8 6.4 0.00 0.00 0.00 43 1010.4
20260905202146 38 326 1.6 6.4 0.00 0.00 0.00 43 1010.6
20260905201145 38 277 4.8 8.0 0.00 0.00 0.00 42 1010.7
20260905200147 38 9 4.8 6.4 0.00 0.00 0.00 43 1010.8
20260905195146 38 282 8.0 12.9 0.00 0.00 0.00 43 1011.0
20260905194146 37 304 11.3 14.5 0.00 0.00 0.00 44 1011.2
20260905193206 37 30 4.8 6.4 0.00 0.00 0.00 45 1011.3
20260905192206 37 11 8.0 12.9 0.00 0.00 0.00 45 1011.5
20260905191146 37 328 8.0 11.3 0.00 0.00 0.00 48 1011.7
20260905190145 36 315 9.7 14.5 0.00 0.00 0.00 48 1011.9
20260905185147 37 336 8.0 12.9 0.00 0.00 0.00 48 1012.2
20260905184146 36 224 6.4 12.9 0.00 0.00 0.00 51 1012.4
20260905183145 36 247 4.8 8.0 0.00 0.00 0.00 52 1012.6
20260905182145 36 278 4.8 6.4 0.00 0.00 0.00 52 1012.7
20260905181145 36 348 3.2 6.4 0.00 0.00 0.00 52 1012.8
20260905180145 36 304 8.0 11.3 0.00 0.00 0.00 52 1012.8
20260905175145 36 227 6.4 11.3 0.00 0.00 0.00 53 1012.9
20260905174145 36 300 3.2 6.4 0.00 0.00 0.00 54 1012.9
20260905173146 35 242 4.8 8.0 0.00 0.00 0.00 56 1012.9
20260905172145 35 327 8.0 11.3 0.00 0.00 0.00 56 1012.8
20260905171205 35 285 1.6 4.8 0.00 0.00 0.00 56 1012.9
20260905170145 35 136 0.0 1.6 0.00 0.00 0.00 57 1012.9
20260905165146 35 0.0 3.2 0.00 0.00 0.00 57 1012.9
20260905164146 34 0.0 0.0 0.00 0.00 0.00 61 1013.0
20260905163145 33 296 6.4 8.0 0.00 0.00 0.00 61 1013.0
20260905162226 33 359 3.2 4.8 0.00 0.00 0.00 62 1013.1
20260905161145 34 354 1.6 3.2 0.00 0.00 0.00 62 1013.2
20260905160146 33 61 3.2 4.8 0.00 0.00 0.00 63 1013.3
20260905155206 33 347 0.0 4.8 0.00 0.00 0.00 62 1013.3
20260905154145 34 218 1.6 1.6 0.00 0.00 0.00 63 1013.4
20260905153206 34 11 0.0 1.6 0.00 0.00 0.00 64 1013.4
20260905152146 33 57 0.0 1.6 0.00 0.00 0.00 68 1013.4
20260905151146 32 0.0 0.0 0.00 0.00 0.00 69 1013.3
20260905150145 32 0.0 0.0 0.00 0.00 0.00 70 1013.3
20260905145145 32 0.0 0.0 0.00 0.00 0.00 71 1013.3
20260905144147 32 70 3.2 4.8 0.00 0.00 0.00 72 1013.2
20260905143145 32 0.0 0.0 0.00 0.00 0.00 73 1013.0
20260905142145 31 0.0 0.0 0.00 0.00 0.00 73 1012.9
20260905141145 31 0.0 0.0 0.00 0.00 0.00 76 1012.7
20260905140207 30 0.0 0.0 0.00 0.00 0.00 79 1012.8
20260905135309 30 0.0 0.0 0.00 0.00 0.00 81 1012.7
20260905134145 29 0.0 0.0 0.00 0.00 0.00 82 1012.6
20260905133145 29 0.0 0.0 0.00 0.00 0.00 83 1012.4
20260905132145 29 0.0 0.0 0.00 0.00 0.00 83 1012.2
20260905131147 29 0.0 0.0 0.00 0.00 0.00 83 1012.1
20260905130145 29 0.0 0.0 0.00 0.00 0.00 83 1012.0
20260905125145 29 0.0 0.0 0.00 0.00 0.00 83 1011.8
20260905124145 29 0.0 0.0 0.00 0.00 0.00 84 1011.9
20260905123226 29 0.0 0.0 0.00 0.00 0.00 84 1011.9
20260905122145 29 0.0 0.0 0.00 0.00 0.00 84 1011.8
20260905121145 29 0.0 0.0 0.00 0.00 0.00 84 1011.8
20260905120145 29 0.0 0.0 0.00 0.00 0.00 84 1011.8
20260905115205 29 0.0 0.0 0.00 0.00 0.00 84 1011.7
20260905114226 29 0.0 0.0 0.00 0.00 0.00 84 1011.6
20260905113145 29 0.0 0.0 0.00 0.00 0.00 84 1011.7
20260905112145 29 0.0 0.0 0.00 0.00 0.00 84 1011.8
20260905111206 29 0.0 0.0 0.00 0.00 0.00 84 1011.7
20260905110145 29 0.0 0.0 0.00 0.00 0.00 84 1011.7
20260905105145 29 0.0 0.0 0.00 0.00 0.00 85 1011.8
20260905104146 29 0.0 0.0 0.00 0.00 0.00 85 1011.8
20260905103145 29 0.0 0.0 0.00 0.00 0.00 85 1011.7
20260905102146 29 0.0 0.0 0.00 0.00 0.00 84 1011.8
20260905101205 29 0.0 0.0 0.00 0.00 0.00 84 1011.8
20260905100145 29 0.0 0.0 0.00 0.00 0.00 84 1011.8
20260905095145 29 0.0 0.0 0.00 0.00 0.00 84 1011.8
20260905094145 29 0.0 0.0 0.00 0.00 0.00 84 1011.7